TimeEDT,TemperatureF,Dew PointF,Humidity,Sea Level PressureIn,VisibilityMPH,Wind Direction,Wind SpeedMPH,Gust SpeedMPH,PrecipitationIn,Events,Conditions,WindDirDegrees,DateUTC
12:15 AM,32.0,32.0,100,29.86,10.0,WNW,8.1,-,N/A,,Overcast,300,2013-03-17 04:15:00
12:35 AM,32.0,32.0,100,29.86,7.0,WNW,6.9,-,N/A,,Overcast,290,2013-03-17 04:35:00
12:55 AM,32.0,32.0,100,29.86,7.0,WNW,4.6,-,N/A,,Overcast,300,2013-03-17 04:55:00
1:15 AM,30.2,30.2,100,29.86,1.5,WNW,4.6,-,N/A,,Overcast,300,2013-03-17 05:15:00
1:35 AM,30.2,30.2,100,29.86,0.5,WNW,5.8,-,N/A,Fog,Light Freezing Fog,300,2013-03-17 05:35:00
1:55 AM,30.2,30.2,100,29.87,0.2,WNW,6.9,-,N/A,Fog,Light Freezing Fog,300,2013-03-17 05:55:00
2:15 AM,30.2,30.2,100,29.87,0.2,WNW,6.9,-,N/A,Fog,Light Freezing Fog,300,2013-03-17 06:15:00
2:35 AM,30.2,30.2,100,29.89,0.2,WNW,6.9,-,N/A,Fog,Light Freezing Fog,290,2013-03-17 06:35:00
2:55 AM,30.2,30.2,100,29.89,0.2,WNW,5.8,-,N/A,Fog,Light Freezing Fog,300,2013-03-17 06:55:00
3:15 AM,30.2,30.2,100,29.89,0.2,WNW,5.8,-,N/A,Fog,Light Freezing Fog,300,2013-03-17 07:15:00
3:35 AM,30.2,30.2,100,29.89,0.2,WNW,4.6,-,N/A,Fog,Light Freezing Fog,300,2013-03-17 07:35:00
3:55 AM,30.2,30.2,100,29.89,0.2,NW,6.9,-,N/A,Fog,Light Freezing Fog,310,2013-03-17 07:55:00
4:15 AM,30.2,30.2,100,29.89,0.2,NW,5.8,-,N/A,Fog,Light Freezing Fog,310,2013-03-17 08:15:00
4:55 AM,30.2,30.2,100,29.89,0.2,NW,6.9,-,N/A,Fog,Light Freezing Fog,320,2013-03-17 08:55:00
5:15 AM,28.4,28.4,100,29.89,0.2,NW,5.8,-,N/A,Fog,Light Freezing Fog,310,2013-03-17 09:15:00
5:35 AM,28.4,28.4,100,29.90,0.2,NNW,6.9,-,N/A,Fog,Light Freezing Fog,330,2013-03-17 09:35:00
5:55 AM,28.4,28.4,100,29.90,0.2,NNW,6.9,-,N/A,Fog,Light Freezing Fog,330,2013-03-17 09:55:00
6:15 AM,26.6,26.6,100,29.92,0.5,NW,5.8,-,N/A,Fog,Light Freezing Fog,320,2013-03-17 10:15:00
6:35 AM,26.6,26.6,100,29.94,3.0,NW,4.6,-,N/A,,Overcast,320,2013-03-17 10:35:00
6:55 AM,26.6,26.6,100,29.96,7.0,NNW,6.9,-,N/A,,Overcast,340,2013-03-17 10:55:00
7:15 AM,26.6,26.6,100,29.97,7.0,NNW,4.6,-,N/A,,Overcast,330,2013-03-17 11:15:00
7:35 AM,26.6,26.6,100,29.97,4.0,NNW,4.6,-,N/A,,Overcast,330,2013-03-17 11:35:00
7:55 AM,26.6,26.6,100,29.98,0.8,NNW,4.6,-,N/A,,Overcast,340,2013-03-17 11:55:00
10:15 AM,24.8,24.8,100,30.03,10.0,North,3.5,-,N/A,,Overcast,350,2013-03-17 14:15:00
10:35 AM,24.8,24.8,100,30.04,10.0,NNW,4.6,-,N/A,,Overcast,330,2013-03-17 14:35:00
10:55 AM,26.6,26.6,100,30.04,10.0,NNW,4.6,-,N/A,,Overcast,340,2013-03-17 14:55:00
11:15 AM,24.8,24.8,100,30.05,10.0,NNW,4.6,-,N/A,,Overcast,340,2013-03-17 15:15:00
11:35 AM,24.8,24.8,100,30.06,10.0,NNW,3.5,-,N/A,,Overcast,330,2013-03-17 15:35:00
11:55 AM,26.6,26.6,100,30.06,10.0,North,4.6,-,N/A,,Overcast,350,2013-03-17 15:55:00
12:15 PM,26.6,26.6,100,30.04,10.0,Calm,Calm,-,N/A,,Overcast,0,2013-03-17 16:15:00
12:55 PM,28.4,28.4,100,30.04,10.0,North,3.5,-,N/A,,Overcast,350,2013-03-17 16:55:00
1:15 PM,28.4,26.6,93,30.04,10.0,North,4.6,-,N/A,,Overcast,360,2013-03-17 17:15:00
1:55 PM,30.2,26.6,86,30.04,10.0,North,4.6,-,N/A,,Overcast,350,2013-03-17 17:55:00
2:15 PM,30.2,26.6,86,30.04,10.0,WNW,3.5,-,N/A,,Overcast,300,2013-03-17 18:15:00
2:35 PM,30.2,26.6,86,30.04,10.0,NNW,5.8,-,N/A,,Overcast,330,2013-03-17 18:35:00
2:55 PM,30.2,26.6,86,30.04,10.0,North,3.5,-,N/A,,Overcast,350,2013-03-17 18:55:00
3:15 PM,30.2,24.8,80,30.04,10.0,Calm,Calm,-,N/A,,Overcast,0,2013-03-17 19:15:00
3:35 PM,30.2,24.8,80,30.03,10.0,ENE,3.5,-,N/A,,Overcast,70,2013-03-17 19:35:00
3:55 PM,32.0,26.6,80,30.03,10.0,Calm,Calm,-,N/A,,Overcast,0,2013-03-17 19:55:00
4:35 PM,32.0,24.8,75,30.04,10.0,Calm,Calm,-,N/A,,Overcast,0,2013-03-17 20:35:00
4:55 PM,32.0,24.8,75,30.04,10.0,NNE,3.5,-,N/A,,Overcast,20,2013-03-17 20:55:00
5:15 PM,32.0,24.8,75,30.04,10.0,Calm,Calm,-,N/A,,Overcast,0,2013-03-17 21:15:00
5:35 PM,32.0,26.6,80,30.05,10.0,Calm,Calm,-,N/A,,Overcast,0,2013-03-17 21:35:00
5:55 PM,32.0,26.6,80,30.05,10.0,Calm,Calm,-,N/A,,Overcast,0,2013-03-17 21:55:00
6:15 PM,32.0,26.6,80,30.05,10.0,Calm,Calm,-,N/A,,Overcast,0,2013-03-17 22:15:00
6:35 PM,32.0,26.6,80,30.06,10.0,East,3.5,-,N/A,,Overcast,90,2013-03-17 22:35:00
6:55 PM,32.0,26.6,80,30.07,10.0,East,3.5,-,N/A,,Overcast,90,2013-03-17 22:55:00
7:15 PM,32.0,26.6,80,30.06,10.0,East,4.6,-,N/A,,Overcast,90,2013-03-17 23:15:00
7:35 PM,30.2,26.6,86,30.07,10.0,ESE,5.8,-,N/A,,Overcast,110,2013-03-17 23:35:00
7:55 PM,30.2,26.6,86,30.07,10.0,ESE,6.9,-,N/A,,Overcast,120,2013-03-17 23:55:00
8:15 PM,30.2,26.6,86,30.07,10.0,ESE,9.2,-,N/A,,Overcast,120,2013-03-18 00:15:00
8:35 PM,30.2,24.8,80,30.08,10.0,ESE,10.4,-,N/A,,Overcast,120,2013-03-18 00:35:00
8:55 PM,30.2,24.8,80,30.08,10.0,ESE,12.7,-,N/A,,Overcast,120,2013-03-18 00:55:00
9:15 PM,30.2,24.8,80,30.07,10.0,ESE,13.8,-,N/A,,Overcast,110,2013-03-18 01:15:00
9:35 PM,28.4,23.0,80,30.08,10.0,ESE,17.3,-,N/A,,Overcast,120,2013-03-18 01:35:00
9:55 PM,28.4,23.0,80,30.08,10.0,ESE,13.8,-,N/A,,Overcast,120,2013-03-18 01:55:00
10:15 PM,28.4,23.0,80,30.08,10.0,ESE,16.1,24.2,N/A,,Overcast,120,2013-03-18 02:15:00
10:35 PM,28.4,23.0,80,30.08,10.0,ESE,20.7,25.3,N/A,,Overcast,120,2013-03-18 02:35:00
10:55 PM,28.4,23.0,80,30.08,10.0,ESE,19.6,28.8,N/A,,Overcast,120,2013-03-18 02:55:00
11:15 PM,28.4,23.0,80,30.06,10.0,ESE,20.7,25.3,N/A,,Overcast,120,2013-03-18 03:15:00
11:35 PM,28.4,23.0,80,30.05,10.0,ESE,23.0,28.8,N/A,,Overcast,120,2013-03-18 03:35:00
11:55 PM,28.4,23.0,80,30.05,10.0,SE,21.9,31.1,N/A,,Overcast,130,2013-03-18 03:55:00